QPF
0.00 0.00 0.00 0.01 0.02 0.04 0.02 0.03 0.03 0.00 0.00 0.00 0.01 0.01 0.00 0.00 0.00 0.00 0.02 0.01 0.01 0.01 0.01 0.04 0.02 0.00 0.00 0.00 0.02 0.13 0.13 0.29 0.12 0.01 0.00 0.00 0.00 0.00 0.00 0.06 0.05 0.02 0.03 0.03
0.00 0.00 0.00 0.01 0.03 0.05 0.02 0.02 0.01 0.01 0.02 0.04 0.02 0.00 0.00 0.01 0.01 0.00 0.01 0.00 0.00 0.00 0.01 0.04 0.02 0.00 0.00 0.00 0.03 0.13 0.16 0.18 0.08 0.03 0.00 0.00 0.00 0.00 0.00 0.00 0.02 0.07 0.04 0.02
0.00 0.01 0.01 0.01 0.01 0.05 0.05 0.06 0.04 0.02 0.04 0.02 0.02 0.02 0.02 0.01 0.00 0.00 0.00 0.00 0.00 0.00 0.01 0.01 0.04 0.00 0.00 0.00 0.00 0.07 0.19 0.15 0.03 0.01 0.05 0.09 0.05 0.01 0.00 0.00 0.05 0.03 0.05 0.05
0.01 0.01 0.01 0.00 0.00 0.02 0.05 0.05 0.04 0.01 0.02 0.01 0.01 0.03 0.03 0.01 0.00 0.00 0.00 0.02 0.00 0.01 0.06 0.02 0.01 0.01 0.01 0.00 0.00 0.02 0.15 0.11 0.01 0.00 0.06 0.19 0.15 0.07 0.06 0.06 0.09 0.18 0.15 0.14
0.00 0.00 0.00 0.00 0.01 0.03 0.05 0.05 0.04 0.04 0.04 0.03 0.04 0.08 0.06 0.01 0.00 0.02 0.02 0.02 0.00 0.01 0.04 0.03 0.04 0.04 0.03 0.03 0.01 0.01 0.06 0.07 0.02 0.03 0.08 0.13 0.13 0.10 0.08 0.11 0.15 0.16 0.11 0.07
0.00 0.00 0.00 0.01 0.01 0.05 0.06 0.03 0.02 0.03 0.04 0.03 0.05 0.03 0.02 0.01 0.01 0.03 0.01 0.01 0.02 0.02 0.01 0.02 0.03 0.04 0.04 0.05 0.05 0.05 0.05 0.04 0.05 0.04 0.03 0.08 0.11 0.06 0.04 0.05 0.06 0.09 0.12 0.12
0.00 0.00 0.00 0.01 0.02 0.08 0.13 0.11 0.09 0.14 0.09 0.02 0.03 0.05 0.04 0.04 0.06 0.11 0.10 0.08 0.08 0.06 0.03 0.03 0.02 0.02 0.03 0.03 0.04 0.05 0.06 0.05 0.06 0.06 0.04 0.08 0.06 0.02 0.02 0.02 0.04 0.04 0.06 0.08
0.00 0.00 0.00 0.00 0.00 0.00 0.03 0.08 0.15 0.19 0.20 0.12 0.11 0.09 0.08 0.05 0.07 0.10 0.08 0.06 0.06 0.06 0.06 0.06 0.06 0.04 0.04 0.02 0.01 0.01 0.02 0.04 0.06 0.06 0.05 0.05 0.02 0.01 0.02 0.01 0.03 0.03 0.03 0.03
0.00 0.00 0.01 0.01 0.01 0.00 0.00 0.00 0.02 0.09 0.15 0.23 0.10 0.04 0.05 0.04 0.06 0.07 0.04 0.02 0.04 0.07 0.09 0.10 0.09 0.08 0.05 0.03 0.01 0.00 0.00 0.02 0.04 0.08 0.06 0.04 0.02 0.01 0.01 0.02 0.03 0.03 0.02 0.01
0.00 0.00 0.00 0.01 0.00 0.00 0.00 0.01 0.02 0.09 0.23 0.27 0.14 0.10 0.09 0.10 0.09 0.10 0.06 0.04 0.05 0.06 0.09 0.10 0.09 0.07 0.06 0.05 0.03 0.02 0.01 0.02 0.04 0.05 0.05 0.05 0.03 0.00 0.01 0.03 0.04 0.02 0.01 0.01
0.01 0.00 0.00 0.01 0.00 0.00 0.00 0.01 0.02 0.05 0.13 0.16 0.08 0.07 0.08 0.07 0.06 0.07 0.06 0.05 0.04 0.04 0.05 0.07 0.07 0.05 0.05 0.03 0.04 0.03 0.02 0.02 0.03 0.03 0.04 0.04 0.02 0.00 0.02 0.02 0.01 0.00 0.00 0.00
0.00 0.01 0.00 0.00 0.00 0.00 0.00 0.02 0.02 0.01 0.04 0.08 0.05 0.04 0.03 0.04 0.05 0.04 0.03 0.04 0.04 0.04 0.04 0.04 0.03 0.03 0.03 0.03 0.02 0.01 0.01 0.01 0.01 0.01 0.03 0.03 0.01 0.02 0.01 0.00 0.00 0.00 0.00 0.00
0.00 0.00 0.00 0.00 0.00 0.00 0.00 0.00 0.00 0.00 0.01 0.02 0.01 0.00 0.00 0.00 0.00 0.01 0.01 0.01 0.02 0.02 0.02 0.02 0.02 0.02 0.02 0.01 0.01 0.00 0.00 0.00 0.00 0.00 0.01 0.00 0.00 0.00 0.00 0.00 0.00 0.00 0.00 0.00
0.00 0.00 0.00 0.00 0.00 0.00 0.00 0.00 0.00 0.00 0.00 0.00 0.00 0.00 0.00 0.00 0.00 0.00 0.00 0.00 0.00 0.00 0.00 0.00 0.00 0.00 0.00 0.00 0.00 0.00 0.00 0.00 0.00 0.00 0.00 0.00 0.00 0.00 0.00 0.00 0.00 0.00 0.00 0.00
0.00 0.00 0.00 0.00 0.00 0.00 0.00 0.00 0.00 0.00 0.00 0.00 0.00 0.00 0.00 0.00 0.00 0.00 0.00 0.00 0.00 0.00 0.00 0.00 0.00 0.00 0.00 0.00 0.00 0.00 0.00 0.00 0.00 0.00 0.00 0.01 0.00 0.00 0.00 0.00 0.00 0.00 0.00 0.00
0.00 0.00 0.00 0.00 0.00 0.00 0.00 0.00 0.00 0.00 0.00 0.00 0.00 0.00 0.00 0.00 0.00 0.00 0.00 0.00 0.00 0.00 0.00 0.00 0.00 0.00 0.00 0.00 0.00 0.00 0.00 0.00 0.00 0.00 0.00 0.00 0.00 0.00 0.00 0.00 0.00 0.00 0.00 0.00
0.00 0.00 0.00 0.00 0.00 0.00 0.00 0.00 0.00 0.00 0.00 0.00 0.00 0.00 0.00 0.00 0.00 0.00 0.00 0.00 0.00 0.00 0.00 0.00 0.00 0.00 0.00 0.00 0.00 0.00 0.00 0.00 0.00 0.00 0.00 0.00 0.00 0.00 0.00 0.00 0.00 0.00 0.00 0.00
0.00 0.00 0.00 0.00 0.00 0.00 0.00 0.00 0.00 0.00 0.00 0.00 0.00 0.00 0.00 0.00 0.00 0.00 0.00 0.00 0.00 0.00 0.00 0.00 0.00 0.00 0.00 0.00 0.00 0.00 0.00 0.00 0.00 0.00 0.00 0.00 0.00 0.00 0.00 0.00 0.00 0.00 0.00 0.00
0.00 0.00 0.00 0.00 0.00 0.00 0.00 0.00 0.00 0.00 0.00 0.00 0.00 0.00 0.00 0.00 0.00 0.00 0.00 0.00 0.00 0.00 0.00 0.00 0.00 0.00 0.00 0.00 0.00 0.00 0.00 0.00 0.00 0.00 0.00 0.00 0.00 0.00 0.00 0.00 0.00 0.00 0.00 0.00
0.00 0.00 0.00 0.00 0.00 0.00 0.00 0.00 0.00 0.00 0.00 0.00 0.00 0.00 0.00 0.00 0.00 0.00 0.00 0.00 0.00 0.00 0.00 0.00 0.00 0.00 0.00 0.00 0.00 0.00 0.00 0.00 0.00 0.00 0.00 0.00 0.00 0.00 0.00 0.00 0.00 0.00 0.00 0.00
0.00 0.00 0.00 0.00 0.00 0.00 0.00 0.00 0.00 0.00 0.00 0.00 0.00 0.00 0.00 0.00 0.00 0.00 0.00 0.00 0.00 0.00 0.00 0.00 0.00 0.00 0.00 0.00 0.00 0.00 0.00 0.00 0.00 0.00 0.00 0.00 0.00 0.00 0.00 0.00 0.00 0.00 0.00 0.00
0.00 0.00 0.00 0.00 0.00 0.00 0.00 0.00 0.00 0.00 0.00 0.00 0.00 0.00 0.00 0.00 0.00 0.00 0.00 0.00 0.00 0.00 0.00 0.00 0.00 0.00 0.00 0.00 0.00 0.00 0.00 0.00 0.00 0.00 0.00 0.00 0.00 0.00 0.00 0.00 0.00 0.00 0.00 0.00
0.00 0.00 0.00 0.00 0.00 0.00 0.00 0.00 0.00 0.00 0.00 0.00 0.00 0.00 0.00 0.00 0.00 0.00 0.00 0.00 0.00 0.00 0.00 0.00 0.00 0.00 0.00 0.00 0.00 0.00 0.00 0.00 0.00 0.00 0.00 0.00 0.00 0.00 0.00 0.00 0.00 0.00 0.00 0.00
0.00 0.00 0.00 0.00 0.00 0.00 0.00 0.00 0.00 0.00 0.00 0.00 0.00 0.00 0.00 0.00 0.00 0.00 0.00 0.00 0.00 0.00 0.00 0.00 0.00 0.00 0.00 0.00 0.00 0.00 0.00 0.00 0.00 0.00 0.00 0.00 0.00 0.00 0.00 0.00 0.00 0.00 0.00 0.00
0.00 0.00 0.00 0.00 0.00 0.00 0.00 0.00 0.00 0.00 0.00 0.00 0.00 0.00 0.00 0.00 0.00 0.00 0.00 0.00 0.00 0.00 0.00 0.00 0.00 0.00 0.00 0.00 0.00 0.00 0.00 0.00 0.00 0.00 0.00 0.00 0.00 0.00 0.00 0.00 0.00 0.00 0.00 0.00
0.00 0.00 0.00 0.00 0.00 0.00 0.00 0.00 0.00 0.00 0.00 0.00 0.00 0.00 0.00 0.00 0.00 0.00 0.00 0.00 0.00 0.00 0.00 0.00 0.01 0.00 0.00 0.00 0.00 0.00 0.00 0.00 0.00 0.00 0.00 0.00 0.00 0.00 0.00 0.00 0.00 0.00 0.00 0.00
0.00 0.00 0.00 0.00 0.00 0.00 0.00 0.00 0.00 0.00 0.00 0.00 0.00 0.00 0.00 0.00 0.00 0.00 0.00 0.01 0.02 0.02 0.01 0.00 0.00 0.01 0.00 0.00 0.00 0.00 0.00 0.00 0.00 0.00 0.00 0.00 0.00 0.00 0.00 0.00 0.00 0.00 0.00 0.00
MSLP
1017.04 1016.77 1016.57 1016.46 1016.35 1016.39 1016.69 1017.18 1018.37 1019.57 1019.58 1019.58 1018.35 1017.34 1016.26 1015.06 1014.21 1014.15 1014.35 1014.35 1014.54 1014.56 1014.67 1014.13 1013.97 1013.18 1012.63 1012.26 1012.75 1013.01 1013.06 1013.26 1013.28 1013.23 1013.72 1014.20 1014.21 1013.64 1012.99 1013.10 1012.83 1013.48 1015.29 1019.82
1016.43 1016.11 1015.98 1015.86 1015.73 1015.86 1016.33 1016.79 1018.11 1019.58 1019.54 1018.71 1017.64 1016.67 1015.85 1015.16 1014.55 1014.21 1014.32 1014.33 1014.30 1014.33 1014.48 1014.35 1013.19 1012.91 1012.50 1012.64 1013.13 1012.84 1013.37 1013.47 1013.43 1013.50 1014.92 1015.33 1015.43 1015.10 1014.03 1013.21 1013.11 1014.27 1017.36 1021.72
1015.87 1015.55 1015.50 1015.22 1015.18 1015.36 1015.89 1016.50 1017.57 1018.91 1018.90 1018.08 1017.33 1016.39 1015.45 1014.88 1014.29 1014.01 1013.95 1013.95 1014.24 1014.37 1014.06 1014.02 1013.29 1013.14 1012.71 1012.86 1013.27 1013.42 1013.52 1013.25 1013.28 1013.43 1014.44 1015.77 1017.54 1017.88 1016.76 1015.88 1016.32 1016.95 1019.50 1023.53
1015.93 1015.47 1015.11 1014.95 1014.77 1014.84 1015.47 1015.62 1015.57 1015.54 1017.11 1017.19 1016.63 1016.29 1015.31 1014.68 1014.23 1013.98 1013.97 1013.83 1013.66 1013.82 1013.84 1013.74 1013.45 1013.27 1013.31 1013.55 1013.77 1013.99 1013.93 1013.25 1013.28 1013.52 1015.11 1017.59 1020.79 1021.25 1020.43 1019.26 1020.47 1021.54 1024.69 1026.40
1016.57 1015.96 1015.46 1015.26 1014.87 1014.58 1014.74 1014.81 1015.20 1015.52 1015.32 1015.31 1015.47 1015.51 1014.80 1014.28 1014.15 1014.18 1013.96 1013.77 1013.54 1013.96 1013.96 1013.97 1013.83 1014.46 1014.79 1015.08 1015.12 1014.96 1014.52 1013.96 1014.02 1014.51 1016.62 1018.62 1022.18 1023.67 1024.09 1024.70 1025.13 1026.10 1027.19 1028.51
1016.94 1016.52 1016.00 1015.58 1015.25 1014.90 1014.07 1013.89 1014.34 1014.63 1014.28 1015.16 1015.78 1015.45 1014.79 1014.29 1014.29 1013.49 1013.69 1013.92 1013.96 1014.22 1014.35 1014.82 1015.09 1015.59 1016.27 1016.65 1016.68 1016.52 1015.90 1015.39 1015.31 1016.04 1018.07 1019.84 1023.34 1027.33 1027.77 1028.77 1028.88 1029.00 1029.73 1030.91
1017.14 1016.65 1016.10 1015.82 1015.58 1015.51 1015.30 1013.84 1013.79 1014.78 1014.25 1015.67 1016.35 1016.96 1016.52 1015.71 1015.54 1015.19 1015.09 1015.28 1015.41 1016.26 1015.96 1016.04 1016.41 1016.98 1017.55 1017.88 1018.58 1018.55 1017.79 1017.12 1016.80 1017.46 1019.30 1023.05 1029.12 1029.81 1030.06 1030.47 1030.97 1031.11 1031.40 1031.66
1017.42 1016.75 1016.23 1015.92 1015.69 1015.55 1015.36 1015.67 1015.39 1015.26 1015.88 1017.80 1018.80 1019.32 1018.84 1017.95 1017.13 1017.05 1017.21 1017.06 1017.42 1016.85 1016.51 1016.67 1016.75 1017.87 1018.61 1019.83 1020.63 1020.73 1020.26 1019.13 1018.79 1019.90 1023.49 1027.73 1029.40 1030.82 1031.49 1031.56 1032.20 1032.26 1032.31 1032.16
1018.03 1017.38 1016.59 1016.22 1015.79 1015.41 1015.95 1017.28 1017.15 1016.58 1017.60 1022.78 1023.55 1022.62 1021.74 1021.17 1020.09 1019.02 1018.54 1018.27 1018.03 1017.21 1016.91 1016.75 1016.97 1018.13 1019.85 1021.67 1022.40 1022.83 1022.82 1022.23 1021.92 1023.07 1025.78 1029.29 1031.67 1031.61 1031.60 1032.03 1032.59 1032.74 1032.68 1032.47
1018.51 1017.92 1016.93 1016.48 1016.45 1016.36 1016.63 1018.26 1018.32 1018.71 1022.82 1025.56 1025.43 1025.25 1024.98 1023.94 1022.85 1021.73 1020.67 1020.48 1019.34 1018.56 1018.05 1017.96 1019.34 1021.25 1023.36 1025.77 1027.06 1027.62 1026.58 1026.50 1027.18 1027.49 1029.28 1031.84 1032.81 1032.21 1031.98 1033.19 1034.35 1033.60 1033.34 1033.13
1019.10 1018.57 1017.80 1017.02 1017.07 1017.30 1017.49 1019.86 1019.26 1019.50 1024.57 1027.11 1027.15 1027.18 1026.80 1025.99 1025.57 1024.44 1023.07 1021.92 1021.24 1020.88 1020.53 1021.14 1022.50 1024.08 1026.59 1028.83 1030.67 1030.93 1031.12 1031.12 1031.21 1031.40 1032.25 1033.76 1033.69 1033.09 1033.94 1035.46 1034.66 1034.23 1033.90 1033.68
1019.94 1019.43 1019.03 1018.78 1018.07 1018.02 1018.28 1020.35 1020.76 1020.61 1022.74 1027.57 1028.01 1027.90 1027.84 1027.73 1027.01 1026.32 1024.83 1024.38 1024.08 1023.83 1023.37 1024.18 1025.46 1027.34 1029.32 1030.74 1032.39 1033.05 1033.82 1034.45 1034.63 1035.01 1035.08 1035.65 1035.26 1035.35 1035.77 1035.72 1035.25 1034.66 1034.34 1033.97
1020.97 1020.63 1020.29 1019.94 1019.67 1019.74 1020.10 1021.27 1021.63 1021.85 1023.95 1027.01 1027.90 1028.11 1027.63 1026.89 1026.52 1026.34 1026.33 1025.57 1025.51 1025.25 1025.31 1026.17 1028.43 1030.32 1031.70 1033.05 1035.17 1035.47 1035.91 1035.93 1036.50 1036.44 1036.48 1036.05 1035.99 1035.77 1035.89 1035.81 1035.32 1034.99 1034.64 1034.19
1021.61 1021.41 1021.18 1021.24 1021.00 1020.99 1021.01 1021.57 1021.83 1021.97 1023.77 1027.24 1029.55 1028.53 1028.05 1027.63 1026.84 1026.41 1026.39 1026.59 1026.45 1026.71 1027.14 1028.90 1031.16 1032.83 1033.77 1035.63 1037.15 1037.85 1038.35 1038.12 1038.57 1038.23 1037.73 1037.03 1036.21 1036.09 1036.40 1036.04 1035.66 1035.29 1034.85 1034.46
1022.19 1022.05 1022.14 1021.88 1021.74 1021.61 1022.01 1022.36 1022.82 1022.70 1023.55 1027.53 1029.38 1029.27 1028.96 1028.50 1027.99 1027.73 1027.68 1027.79 1028.43 1029.54 1030.72 1033.28 1035.20 1035.48 1036.11 1037.37 1038.69 1040.11 1040.03 1040.06 1040.22 1040.14 1039.40 1039.30 1038.06 1037.29 1036.75 1036.46 1035.96 1035.39 1034.83 1034.24
1023.15 1023.13 1022.77 1022.32 1022.13 1021.91 1022.43 1023.13 1023.48 1024.04 1024.63 1026.84 1029.82 1030.97 1030.68 1029.71 1029.29 1028.95 1029.07 1029.51 1030.41 1031.83 1033.96 1036.11 1036.76 1037.05 1037.39 1039.61 1041.13 1040.92 1040.40 1040.25 1039.99 1040.06 1039.30 1038.98 1038.20 1037.51 1036.83 1036.72 1035.97 1035.32 1034.81 1034.29
1023.71 1023.71 1023.49 1023.52 1023.39 1023.23 1024.85 1026.79 1026.10 1024.67 1025.11 1027.29 1030.87 1032.02 1031.93 1031.56 1031.09 1031.21 1031.35 1031.46 1032.83 1033.88 1035.62 1037.06 1037.99 1037.73 1037.98 1040.20 1041.44 1040.81 1040.52 1040.01 1039.88 1039.73 1039.44 1038.41 1037.74 1037.18 1036.36 1035.97 1035.36 1034.80 1034.43 1034.12
1024.06 1023.98 1023.96 1024.05 1024.33 1024.80 1025.80 1026.44 1025.86 1025.29 1026.56 1028.94 1032.72 1034.13 1033.52 1034.03 1033.88 1033.80 1033.29 1033.89 1034.31 1035.57 1037.13 1038.03 1038.54 1038.30 1039.03 1040.58 1040.72 1040.17 1040.10 1039.51 1039.16 1038.91 1038.37 1037.80 1036.77 1036.33 1035.72 1035.16 1034.73 1034.34 1033.94 1033.37
1024.00 1024.18 1024.31 1025.07 1025.71 1026.58 1027.05 1026.43 1026.75 1027.05 1028.47 1033.35 1036.65 1037.90 1037.07 1036.10 1036.14 1035.93 1035.05 1034.99 1036.39 1036.80 1037.87 1038.55 1038.86 1039.38 1040.01 1040.12 1039.89 1039.49 1039.38 1039.31 1038.67 1037.82 1037.48 1036.77 1036.31 1035.56 1034.99 1034.51 1034.11 1033.82 1033.20 1032.57
1024.07 1024.29 1024.81 1026.71 1027.23 1026.60 1026.71 1026.95 1027.84 1030.00 1033.05 1035.71 1038.86 1039.34 1039.04 1038.89 1037.70 1037.50 1037.01 1036.92 1037.79 1038.25 1038.81 1038.62 1038.80 1039.94 1039.35 1038.95 1038.50 1038.31 1038.10 1037.81 1037.39 1037.12 1036.26 1035.72 1035.19 1034.79 1034.17 1033.73 1033.34 1032.84 1032.31 1031.58
1024.63 1025.73 1027.21 1027.62 1026.86 1027.23 1028.57 1031.35 1033.34 1035.59 1037.75 1039.16 1039.91 1040.09 1040.07 1039.37 1039.63 1039.61 1039.19 1039.21 1038.77 1039.19 1039.17 1038.91 1039.65 1039.86 1038.67 1037.69 1037.58 1037.11 1036.74 1036.46 1036.17 1035.86 1035.33 1034.85 1034.45 1033.95 1033.32 1032.73 1032.43 1032.00 1031.44 1030.87
1025.75 1026.33 1027.56 1028.15 1029.69 1030.89 1033.00 1036.43 1037.55 1039.26 1040.81 1040.64 1040.59 1040.49 1040.11 1039.71 1039.55 1040.06 1039.48 1039.58 1039.31 1039.48 1039.04 1039.19 1039.26 1038.20 1037.19 1036.78 1036.56 1036.33 1035.77 1035.49 1035.16 1034.80 1034.41 1033.98 1033.58 1033.15 1032.64 1032.14 1031.63 1031.16 1030.68 1030.10
1026.49 1028.11 1031.01 1033.18 1035.32 1036.85 1039.67 1041.34 1040.91 1041.34 1041.57 1041.54 1041.45 1040.98 1040.29 1039.64 1039.41 1039.81 1039.94 1039.87 1039.56 1038.75 1038.49 1038.43 1037.51 1036.57 1036.03 1035.66 1035.52 1035.25 1034.87 1034.65 1034.33 1033.99 1033.70 1033.31 1032.81 1032.32 1032.03 1031.47 1030.99 1030.53 1029.96 1029.45
1030.44 1033.97 1037.15 1038.67 1040.80 1041.71 1042.35 1043.01 1042.83 1042.09 1041.80 1041.73 1041.63 1041.11 1040.63 1039.83 1039.57 1039.56 1039.76 1039.41 1038.67 1038.29 1037.71 1036.82 1035.87 1035.04 1034.87 1034.59 1034.46 1034.49 1034.17 1033.95 1033.73 1033.41 1033.02 1032.65 1032.22 1031.70 1031.32 1030.89 1030.47 1029.97 1029.39 1028.74
1035.19 1037.75 1040.98 1041.79 1042.33 1042.47 1042.51 1042.49 1042.54 1041.91 1041.79 1041.88 1041.53 1040.91 1040.72 1039.88 1039.61 1039.27 1039.04 1038.60 1038.12 1037.23 1036.05 1034.76 1033.65 1033.28 1033.46 1033.53 1033.66 1033.59 1033.46 1033.24 1033.07 1032.72 1032.42 1032.01 1031.65 1031.25 1030.78 1030.37 1029.91 1029.37 1028.77 1028.23
1038.46 1040.87 1042.39 1042.44 1042.83 1042.66 1042.50 1042.53 1042.28 1041.83 1041.85 1041.69 1041.76 1041.28 1040.77 1040.47 1039.96 1039.05 1038.58 1038.05 1036.72 1035.03 1033.87 1032.83 1032.39 1032.28 1032.37 1032.50 1032.56 1032.56 1032.50 1032.40 1032.24 1032.07 1031.85 1031.54 1031.23 1030.86 1030.30 1029.72 1029.22 1028.72 1028.28 1027.74
1041.39 1042.79 1042.55 1042.94 1043.00 1042.90 1042.50 1042.09 1041.81 1041.51 1041.67 1041.64 1041.35 1041.55 1041.19 1040.15 1039.16 1038.27 1037.12 1035.82 1034.31 1033.22 1032.35 1031.83 1031.62 1031.53 1031.46 1031.52 1031.54 1031.57 1031.57 1031.54 1031.46 1031.35 1031.14 1030.85 1030.41 1030.11 1029.81 1029.14 1028.42 1028.05 1027.59 1027.17
Thickness
5533 5529 5525 5519 5513 5507 5502 5497 5496 5470 5465 5466 5464 5470 5469 5484 5488 5485 5477 5469 5470 5465 5458 5457 5452 5464 5472 5463 5456 5455 5449 5452 5461 5453 5420 5407 5423 5456 5479 5466 5468 5465 5471 5412
5525 5522 5515 5510 5506 5498 5492 5488 5473 5455 5450 5469 5466 5465 5466 5471 5474 5473 5462 5459 5455 5455 5451 5447 5455 5457 5465 5457 5446 5449 5439 5439 5454 5457 5427 5406 5411 5410 5441 5464 5461 5472 5468 5382
5515 5512 5506 5502 5496 5489 5481 5471 5471 5444 5437 5438 5448 5458 5462 5461 5463 5463 5460 5452 5446 5438 5441 5442 5442 5447 5451 5435 5440 5435 5428 5435 5442 5476 5459 5420 5396 5365 5391 5432 5439 5443 5422 5327
5503 5500 5497 5493 5488 5481 5471 5465 5469 5467 5447 5433 5436 5439 5444 5448 5449 5449 5444 5439 5444 5440 5438 5433 5438 5439 5437 5419 5421 5417 5417 5425 5425 5443 5389 5345 5322 5322 5327 5391 5340 5359 5284 5276
5487 5486 5482 5478 5475 5468 5462 5459 5453 5439 5443 5446 5435 5435 5441 5444 5441 5435 5437 5435 5434 5428 5431 5433 5431 5421 5411 5399 5389 5396 5399 5410 5403 5414 5362 5337 5299 5294 5296 5279 5280 5269 5264 5257
5471 5469 5466 5462 5457 5452 5455 5452 5443 5440 5454 5437 5436 5444 5440 5437 5431 5432 5428 5421 5424 5420 5418 5390 5384 5376 5364 5361 5364 5366 5380 5384 5391 5404 5341 5342 5309 5257 5258 5246 5246 5247 5236 5233
5459 5454 5451 5445 5439 5434 5430 5440 5435 5426 5446 5430 5428 5379 5396 5405 5401 5403 5389 5383 5389 5368 5368 5365 5359 5352 5346 5344 5333 5334 5344 5357 5377 5377 5364 5363 5220 5232 5234 5224 5220 5221 5218 5216
5442 5439 5434 5430 5424 5419 5417 5408 5411 5413 5419 5374 5354 5334 5356 5365 5374 5369 5361 5357 5351 5352 5356 5361 5363 5347 5339 5319 5306 5298 5301 5326 5349 5344 5254 5223 5215 5206 5203 5202 5198 5198 5194 5195
5421 5419 5417 5413 5409 5405 5396 5381 5376 5381 5393 5293 5293 5307 5317 5318 5325 5342 5344 5336 5333 5342 5349 5359 5361 5361 5330 5298 5279 5280 5275 5279 5292 5283 5256 5226 5184 5189 5191 5185 5185 5178 5175 5174
5400 5396 5396 5392 5386 5380 5373 5356 5351 5339 5292 5267 5270 5271 5273 5279 5290 5300 5308 5299 5311 5316 5331 5341 5312 5285 5253 5221 5215 5214 5225 5218 5213 5226 5189 5165 5161 5170 5177 5175 5155 5146 5149 5148
5376 5370 5367 5366 5358 5350 5344 5320 5321 5315 5264 5243 5243 5243 5242 5246 5247 5259 5269 5286 5284 5280 5293 5288 5266 5249 5216 5194 5176 5178 5172 5176 5174 5178 5167 5157 5145 5155 5145 5119 5122 5125 5125 5122
5349 5343 5337 5330 5329 5323 5315 5295 5289 5287 5269 5228 5224 5223 5224 5223 5226 5228 5239 5250 5244 5243 5257 5241 5226 5207 5185 5175 5160 5161 5144 5140 5141 5133 5137 5114 5119 5111 5105 5101 5101 5102 5100 5099
5321 5315 5309 5304 5299 5292 5285 5272 5267 5263 5248 5224 5216 5211 5216 5220 5221 5221 5221 5226 5221 5223 5221 5219 5196 5177 5172 5155 5132 5131 5128 5118 5108 5108 5101 5099 5094 5095 5089 5083 5081 5079 5077 5074
5306 5299 5292 5285 5280 5275 5270 5262 5258 5255 5242 5209 5188 5204 5203 5207 5212 5213 5210 5207 5207 5203 5197 5180 5170 5157 5152 5120 5111 5105 5091 5096 5077 5073 5075 5084 5076 5079 5066 5063 5060 5056 5052 5048
5299 5293 5286 5282 5277 5272 5266 5259 5252 5250 5241 5194 5182 5192 5196 5197 5199 5199 5197 5192 5182 5165 5155 5130 5109 5113 5123 5093 5083 5068 5072 5070 5049 5046 5049 5057 5065 5052 5055 5045 5045 5042 5038 5035
5296 5291 5288 5285 5282 5278 5272 5256 5256 5247 5240 5211 5189 5184 5185 5191 5191 5192 5191 5186 5173 5154 5135 5101 5094 5091 5102 5064 5044 5064 5053 5060 5068 5063 5047 5052 5050 5041 5031 5030 5030 5027 5023 5019
5299 5293 5289 5284 5281 5280 5261 5239 5242 5248 5247 5223 5190 5186 5187 5183 5183 5181 5177 5174 5153 5146 5113 5114 5099 5107 5110 5057 5050 5075 5062 5057 5051 5046 5044 5044 5032 5039 5036 5026 5022 5020 5011 5003
5304 5300 5294 5286 5280 5276 5260 5255 5253 5253 5244 5226 5175 5176 5184 5171 5171 5163 5168 5158 5150 5144 5110 5111 5104 5111 5089 5062 5074 5068 5062 5067 5055 5058 5046 5047 5049 5039 5032 5024 5019 5015 5010 5001
5311 5305 5299 5290 5279 5266 5260 5260 5256 5250 5239 5178 5152 5134 5146 5163 5164 5153 5162 5157 5147 5139 5114 5102 5116 5098 5075 5091 5085 5072 5072 5065 5069 5063 5057 5052 5040 5040 5036 5026 5018 5010 5007 5001
5318 5311 5302 5280 5275 5274 5272 5262 5252 5235 5207 5179 5142 5148 5143 5146 5155 5151 5150 5138 5125 5106 5110 5116 5106 5073 5073 5090 5094 5086 5080 5076 5073 5073 5076 5070 5062 5050 5041 5031 5017 5011 5003 5000
5322 5306 5292 5285 5285 5280 5264 5232 5215 5193 5166 5161 5150 5143 5136 5150 5136 5124 5122 5116 5115 5102 5119 5114 5084 5082 5090 5105 5097 5093 5088 5084 5079 5071 5065 5058 5051 5045 5042 5035 5023 5013 5005 4996
5320 5312 5299 5289 5270 5251 5234 5189 5192 5169 5150 5157 5146 5152 5148 5150 5145 5131 5131 5123 5118 5119 5112 5100 5096 5103 5111 5114 5103 5099 5096 5090 5087 5082 5074 5066 5059 5050 5042 5032 5024 5014 5003 4994
5322 5301 5270 5250 5225 5217 5178 5158 5173 5160 5160 5154 5149 5151 5156 5155 5155 5123 5124 5127 5110 5122 5104 5115 5116 5111 5124 5115 5109 5110 5107 5101 5095 5088 5081 5072 5064 5055 5045 5037 5027 5016 5005 4995
5295 5258 5231 5202 5181 5172 5160 5157 5156 5167 5160 5159 5158 5153 5156 5153 5145 5124 5127 5129 5118 5111 5116 5132 5123 5126 5125 5121 5120 5112 5110 5104 5098 5091 5084 5076 5068 5060 5050 5040 5029 5019 5007 4997
5257 5236 5197 5193 5190 5183 5178 5174 5168 5174 5168 5158 5152 5156 5154 5140 5140 5140 5135 5136 5120 5127 5141 5141 5151 5152 5136 5129 5125 5118 5112 5107 5097 5093 5083 5078 5071 5062 5054 5044 5033 5023 5013 5001
5244 5215 5201 5201 5192 5190 5179 5175 5175 5175 5164 5162 5156 5142 5144 5137 5132 5152 5133 5128 5134 5154 5154 5163 5160 5155 5148 5135 5129 5123 5117 5109 5104 5098 5091 5085 5076 5067 5058 5050 5040 5029 5017 5006
5223 5212 5209 5200 5193 5192 5188 5183 5181 5177 5171 5162 5150 5159 5146 5141 5144 5149 5152 5160 5165 5169 5168 5166 5161 5155 5150 5143 5135 5128 5122 5115 5108 5101 5097 5089 5082 5071 5063 5057 5051 5039 5027 5014